contact:dominique.lefevre@mio.osupytheas.fr, maurice.libes@osupytheas.fr, didier.mallarino@osupytheas.fr
Project:EMSO http://www.emso-fr.org/EMSO-France
Depth: 2436.0 m
Title:EMSO Ligure Ouest : Data MII capteur AQUADOPP
Date,Latitude,Longitude,X_East,Y_North,Z_Up,Amplitude_X,Amplitude_Y,Amplitude_Z,Batterie,SoundSpeed,Heading,Pitch,Roll,Pressure,TIS,Speed,Direction
, degrees North, degrees East, m.s-1, m.s-1,m.s-1, 1, 1, 1, Volt, m.s-1, degree, degree, degree, dbar, degree_C, m.s-1, degree
2020-05-19T00:04:03,42.805,6.029,0.035,0.014,-0.002,104.0,106.0,102.0,13.4,1505.3,328.4,-0.7,1.8,2470.216,13.31,0.037,68.2
2020-05-19T00:07:03,42.805,6.029,0.027,-0.001,-0.044,103.0,106.0,101.0,13.3,1505.3,326.0,-0.7,1.8,2470.257,13.32,0.027,92.1
2020-05-19T00:10:03,42.805,6.029,0.016,0.022,-0.019,103.0,107.0,102.0,13.3,1505.3,324.5,-0.7,1.8,2470.292,13.32,0.027,36.0
2020-05-19T00:13:03,42.805,6.029,0.018,0.011,-0.032,105.0,107.0,100.0,13.4,1505.3,324.9,-0.7,1.8,2470.262,13.33,0.021,58.6
2020-05-19T00:16:03,42.805,6.029,0.034,0.003,-0.025,104.0,107.0,101.0,13.3,1505.3,327.5,-0.7,1.9,2470.235,13.33,0.034,85.0
2020-05-19T00:19:03,42.805,6.029,0.01,-0.006,-0.058,106.0,106.0,101.0,13.4,1505.3,324.4,-0.7,1.8,2470.267,13.33,0.011,121.0
2020-05-19T00:22:03,42.805,6.029,0.019,-0.005,-0.063,104.0,106.0,101.0,13.4,1505.3,323.5,-0.7,1.8,2470.234,13.33,0.019,104.7
2020-05-19T00:25:03,42.805,6.029,0.007,-0.012,-0.019,106.0,106.0,101.0,13.4,1505.3,328.2,-0.7,1.9,2470.275,13.33,0.013,149.7
2020-05-19T00:28:03,42.805,6.029,0.001,0.01,-0.027,103.0,107.0,103.0,13.4,1505.3,324.8,-0.7,1.8,2470.265,13.33,0.01,5.7
2020-05-19T00:31:03,42.805,6.029,-0.016,0.005,-0.058,104.0,105.0,101.0,13.4,1505.3,324.4,-0.7,1.8,2470.225,13.33,0.016,287.4
2020-05-19T00:34:03,42.805,6.029,0.017,0.002,-0.054,103.0,107.0,101.0,13.4,1505.3,324.7,-0.7,1.8,2470.237,13.33,0.017,83.3
2020-05-19T00:37:03,42.805,6.029,0.009,-0.019,-0.045,103.0,106.0,101.0,13.4,1505.3,325.3,-0.7,1.8,2470.259,13.33,0.021,154.7
2020-05-19T00:40:03,42.805,6.029,0.001,0.017,-0.022,104.0,106.0,101.0,13.3,1505.3,326.7,-0.7,1.9,2470.261,13.33,0.017,3.4
2020-05-19T00:43:03,42.805,6.029,0.012,0.02,-0.013,102.0,105.0,102.0,13.4,1505.3,327.2,-0.7,1.8,2470.241,13.33,0.023,31.0
2020-05-19T00:46:03,42.805,6.029,0.061,-0.003,0.004,103.0,106.0,101.0,13.3,1505.3,327.2,-0.7,1.8,2470.232,13.33,0.061,92.8
2020-05-19T00:49:03,42.805,6.029,0.019,-0.01,-0.048,105.0,108.0,102.0,13.4,1505.3,325.4,-0.7,1.8,2470.217,13.33,0.021,117.8
2020-05-19T00:52:03,42.805,6.029,0.015,-0.012,-0.014,105.0,107.0,102.0,13.3,1505.3,324.5,-0.7,1.8,2470.238,13.33,0.019,128.7
2020-05-19T00:55:03,42.805,6.029,0.024,-0.004,-0.014,104.0,106.0,101.0,13.3,1505.3,327.3,-0.7,1.8,2470.215,13.33,0.024,99.5
2020-05-19T00:58:03,42.805,6.029,0.031,0.0,0.0,104.0,107.0,102.0,13.4,1505.3,324.8,-0.7,1.9,2470.239,13.33,0.03,90.0
2020-05-19T01:04:03,42.805,6.029,0.005,-0.006,-0.006,106.0,109.0,103.0,13.4,1505.3,325.8,-0.7,1.8,2470.274,13.31,0.007,140.2
2020-05-19T01:07:02,42.805,6.029,0.007,-0.007,-0.004,103.0,108.0,103.0,13.4,1505.3,326.2,-0.7,1.8,2470.291,13.32,0.009,135.0
2020-05-19T01:10:03,42.805,6.029,0.049,0.004,-0.003,105.0,106.0,101.0,13.4,1505.3,325.0,-0.7,1.8,2470.275,13.32,0.049,85.3
2020-05-19T01:13:03,42.805,6.029,0.018,0.002,-0.013,104.0,106.0,102.0,13.4,1505.3,323.3,-0.7,1.8,2470.288,13.32,0.018,83.7
2020-05-19T01:16:03,42.805,6.029,0.045,-0.002,0.013,103.0,107.0,101.0,13.3,1505.3,324.8,-0.7,1.8,2470.283,13.33,0.045,92.5
2020-05-19T01:19:03,42.805,6.029,0.018,-0.013,-0.033,103.0,106.0,101.0,13.3,1505.3,328.0,-0.7,1.8,2470.267,13.33,0.022,125.8
2020-05-19T01:22:03,42.805,6.029,-0.008,-0.012,-0.049,106.0,106.0,102.0,13.3,1505.3,326.5,-0.7,1.8,2470.241,13.33,0.014,213.7
2020-05-19T01:25:03,42.805,6.029,-0.001,-0.001,-0.043,104.0,106.0,102.0,13.4,1505.3,325.4,-0.7,1.9,2470.285,13.33,0.001,225.0
2020-05-19T01:28:03,42.805,6.029,0.026,-0.013,-0.041,105.0,107.0,101.0,13.3,1505.3,326.0,-0.7,1.8,2470.281,13.33,0.029,116.6
2020-05-19T01:31:03,42.805,6.029,0.01,-0.019,-0.017,104.0,108.0,103.0,13.4,1505.3,326.3,-0.7,1.8,2470.302,13.33,0.021,152.2
2020-05-19T01:34:03,42.805,6.029,0.03,0.004,-0.007,103.0,107.0,102.0,13.4,1505.3,322.7,-0.7,1.8,2470.299,13.33,0.03,82.4
2020-05-19T01:37:03,42.805,6.029,0.013,0.01,-0.037,105.0,107.0,102.0,13.4,1505.3,327.3,-0.7,1.8,2470.269,13.33,0.016,52.4
2020-05-19T01:40:03,42.805,6.029,0.013,-0.015,-0.041,104.0,106.0,101.0,13.4,1505.3,325.3,-0.7,1.8,2470.294,13.33,0.019,139.1
2020-05-19T01:43:03,42.805,6.029,0.002,-0.008,-0.049,107.0,109.0,101.0,13.4,1505.3,322.8,-0.7,1.8,2470.259,13.33,0.008,166.0
2020-05-19T01:46:03,42.805,6.029,-0.004,-0.004,-0.049,105.0,107.0,103.0,13.4,1505.3,325.6,-0.7,1.8,2470.27,13.33,0.005,225.0
2020-05-19T01:49:03,42.805,6.029,0.021,-0.009,-0.032,102.0,107.0,102.0,13.4,1505.3,325.2,-0.7,1.8,2470.298,13.33,0.022,113.2
2020-05-19T01:52:03,42.805,6.029,0.007,-0.009,-0.026,104.0,107.0,102.0,13.3,1505.3,328.1,-0.7,1.8,2470.282,13.33,0.011,142.1
2020-05-19T01:55:03,42.805,6.029,0.027,-0.016,-0.008,103.0,107.0,103.0,13.3,1505.3,325.0,-0.7,1.9,2470.285,13.33,0.031,120.7
2020-05-19T01:58:03,42.805,6.029,0.007,-0.016,-0.053,102.0,107.0,101.0,13.3,1505.3,323.5,-0.7,1.8,2470.286,13.33,0.017,156.4
2020-05-19T02:01:03,42.805,6.029,-0.009,0.008,-0.003,104.0,107.0,102.0,13.4,1505.3,325.1,-0.7,1.8,2470.264,13.33,0.012,311.6
2020-05-19T02:04:03,42.805,6.029,-0.003,-0.003,-0.029,103.0,105.0,101.0,13.3,1505.3,325.1,-0.7,1.8,2470.333,13.33,0.004,225.0
2020-05-19T02:07:03,42.805,6.029,0.025,-0.018,-0.029,103.0,103.0,101.0,13.4,1505.3,328.3,-0.7,1.8,2470.278,13.33,0.03,125.8
2020-05-19T02:10:03,42.805,6.029,0.03,-0.008,-0.008,103.0,104.0,102.0,13.4,1505.3,327.2,-0.7,1.8,2470.29,13.33,0.031,104.9
2020-05-19T02:13:03,42.805,6.029,0.024,-0.023,-0.029,103.0,106.0,101.0,13.4,1505.3,328.4,-0.7,1.8,2470.302,13.33,0.033,133.8
2020-05-19T02:16:03,42.805,6.029,0.025,-0.001,-0.033,104.0,105.0,100.0,13.4,1505.3,325.0,-0.7,1.8,2470.298,13.33,0.025,92.3
2020-05-19T02:19:03,42.805,6.029,0.026,0.005,-0.02,102.0,105.0,102.0,13.3,1505.3,324.2,-0.7,1.8,2470.305,13.33,0.026,79.1
2020-05-19T02:22:03,42.805,6.029,0.025,0.01,-0.015,104.0,105.0,101.0,13.4,1505.3,326.6,-0.7,1.8,2470.321,13.33,0.026,68.2
2020-05-19T02:25:03,42.805,6.029,0.024,0.002,-0.03,103.0,105.0,101.0,13.4,1505.3,328.4,-0.7,1.8,2470.27,13.33,0.024,85.2
2020-05-19T02:28:03,42.805,6.029,-0.005,0.0,-0.028,104.0,106.0,102.0,13.3,1505.3,326.4,-0.7,1.8,2470.309,13.33,0.005,270.0
2020-05-19T02:31:03,42.805,6.029,0.026,0.008,0.002,105.0,106.0,101.0,13.4,1505.3,325.0,-0.7,1.8,2470.294,13.33,0.027,72.9
2020-05-19T02:34:03,42.805,6.029,0.013,0.005,-0.017,106.0,105.0,101.0,13.3,1505.3,327.7,-0.7,1.8,2470.297,13.33,0.013,69.0
2020-05-19T02:37:03,42.805,6.029,0.016,-0.017,-0.025,102.0,106.0,102.0,13.4,1505.3,324.2,-0.7,1.8,2470.299,13.33,0.023,136.7
2020-05-19T02:40:03,42.805,6.029,0.031,-0.003,0.001,103.0,106.0,103.0,13.4,1505.3,326.3,-0.7,1.8,2470.341,13.33,0.031,95.5
2020-05-19T02:43:03,42.805,6.029,0.033,0.003,-0.002,104.0,105.0,103.0,13.4,1505.3,323.6,-0.7,1.8,2470.334,13.33,0.033,84.8
2020-05-19T02:46:03,42.805,6.029,0.037,-0.007,-0.034,103.0,106.0,102.0,13.3,1505.3,326.9,-0.7,1.9,2470.36,13.33,0.037,100.7
2020-05-19T02:49:03,42.805,6.029,0.006,-0.011,-0.042,104.0,106.0,101.0,13.3,1505.3,324.5,-0.7,1.8,2470.298,13.33,0.012,151.4
2020-05-19T02:52:03,42.805,6.029,0.034,-0.012,-0.006,104.0,105.0,102.0,13.4,1505.3,325.9,-0.7,1.8,2470.329,13.32,0.036,109.4
2020-05-19T02:55:03,42.805,6.029,-0.002,-0.007,-0.028,106.0,104.0,102.0,13.4,1505.3,327.4,-0.7,1.8,2470.306,13.32,0.007,195.9
2020-05-19T02:58:03,42.805,6.029,0.023,-0.007,-0.017,103.0,106.0,103.0,13.4,1505.3,326.6,-0.7,1.8,2470.316,13.33,0.024,106.9
2020-05-19T03:04:03,42.805,6.029,0.014,-0.004,-0.01,105.0,105.0,101.0,13.4,1505.3,325.8,-0.7,1.8,2470.385,13.31,0.014,105.9
2020-05-19T03:07:03,42.805,6.029,-0.006,-0.029,-0.027,104.0,106.0,102.0,13.3,1505.3,324.8,-0.7,1.8,2470.333,13.31,0.029,191.7
2020-05-19T03:10:03,42.805,6.029,0.027,-0.014,-0.002,104.0,105.0,101.0,13.4,1505.3,327.8,-0.7,1.8,2470.374,13.32,0.03,117.4
2020-05-19T03:13:03,42.805,6.029,0.021,-0.036,-0.015,105.0,105.0,102.0,13.4,1505.3,325.0,-0.7,1.9,2470.35,13.32,0.041,149.7
2020-05-19T03:16:03,42.805,6.029,0.022,-0.006,-0.02,105.0,105.0,102.0,13.4,1505.3,325.0,-0.7,1.8,2470.395,13.32,0.022,105.3
2020-05-19T03:19:03,42.805,6.029,0.023,-0.031,-0.01,105.0,105.0,102.0,13.4,1505.3,327.8,-0.7,1.8,2470.343,13.32,0.038,143.4
2020-05-19T03:22:03,42.805,6.029,0.008,-0.006,-0.045,105.0,105.0,103.0,13.4,1505.3,326.0,-0.7,1.8,2470.374,13.32,0.01,126.9
2020-05-19T03:25:03,42.805,6.029,0.044,-0.021,0.0,104.0,105.0,102.0,13.4,1505.3,328.4,-0.7,1.8,2470.366,13.32,0.048,115.5
2020-05-19T03:28:03,42.805,6.029,0.006,-0.013,-0.03,104.0,105.0,103.0,13.3,1505.3,326.5,-0.7,1.9,2470.339,13.33,0.014,155.2
2020-05-19T03:31:03,42.805,6.029,0.008,-0.01,-0.028,103.0,106.0,101.0,13.3,1505.3,323.9,-0.7,1.8,2470.344,13.32,0.012,141.3
2020-05-19T03:34:03,42.805,6.029,-0.018,-0.003,-0.012,103.0,105.0,102.0,13.3,1505.3,324.2,-0.7,1.9,2470.386,13.32,0.018,260.5
2020-05-19T03:37:03,42.805,6.029,0.038,-0.021,-0.006,105.0,105.0,102.0,13.4,1505.3,328.5,-0.8,1.8,2470.345,13.32,0.043,118.9
2020-05-19T03:40:03,42.805,6.029,0.006,-0.001,-0.031,104.0,106.0,101.0,13.4,1505.3,323.7,-0.7,1.9,2470.385,13.32,0.006,99.5
2020-05-19T03:43:03,42.805,6.029,0.021,-0.005,0.031,105.0,104.0,101.0,13.4,1505.3,326.3,-0.7,1.9,2470.383,13.33,0.021,103.4
2020-05-19T03:46:03,42.805,6.029,-0.01,-0.007,-0.047,103.0,105.0,102.0,13.4,1505.3,323.6,-0.7,1.8,2470.354,13.32,0.012,235.0
2020-05-19T03:49:03,42.805,6.029,0.031,-0.022,-0.011,105.0,104.0,102.0,13.4,1505.3,324.4,-0.7,1.8,2470.325,13.32,0.038,125.4
2020-05-19T03:52:03,42.805,6.029,0.032,-0.013,-0.017,105.0,105.0,102.0,13.4,1505.3,326.6,-0.7,1.8,2470.335,13.33,0.034,112.1
2020-05-19T03:55:03,42.805,6.029,0.009,-0.005,-0.032,102.0,105.0,101.0,13.3,1505.3,325.7,-0.7,1.8,2470.385,13.33,0.01,119.1
2020-05-19T03:58:03,42.805,6.029,0.011,-0.032,-0.003,104.0,105.0,101.0,13.4,1505.3,324.3,-0.7,1.8,2470.359,13.32,0.033,161.0
2020-05-19T04:04:03,42.805,6.029,0.029,-0.019,0.007,104.0,105.0,102.0,13.3,1505.3,325.6,-0.7,1.8,2470.421,13.31,0.034,123.2
2020-05-19T04:07:03,42.805,6.029,0.009,-0.018,-0.027,105.0,105.0,102.0,13.4,1505.3,327.2,-0.7,1.8,2470.39,13.31,0.02,153.4
2020-05-19T04:10:03,42.805,6.029,0.021,-0.011,-0.04,104.0,104.0,102.0,13.4,1505.3,326.8,-0.7,1.8,2470.406,13.32,0.023,117.6
2020-05-19T04:13:03,42.805,6.029,0.011,0.001,-0.007,103.0,106.0,102.0,13.4,1505.3,325.6,-0.7,1.8,2470.404,13.32,0.011,84.8
2020-05-19T04:16:03,42.805,6.029,0.017,-0.008,-0.025,105.0,106.0,102.0,13.4,1505.3,325.0,-0.7,1.8,2470.403,13.32,0.018,115.2
2020-05-19T04:19:03,42.805,6.029,0.032,-0.017,-0.013,103.0,105.0,103.0,13.4,1505.3,324.2,-0.7,1.8,2470.369,13.32,0.036,118.0
2020-05-19T04:22:03,42.805,6.029,0.004,-0.014,-0.038,105.0,105.0,102.0,13.4,1505.3,327.2,-0.7,1.8,2470.362,13.32,0.014,164.1
2020-05-19T04:25:03,42.805,6.029,0.027,-0.007,0.001,104.0,106.0,102.0,13.4,1505.3,324.8,-0.7,1.9,2470.397,13.32,0.027,104.5
2020-05-19T04:28:03,42.805,6.029,0.027,-0.018,-0.047,106.0,104.0,103.0,13.4,1505.3,325.1,-0.7,1.8,2470.379,13.32,0.032,123.7
2020-05-19T04:31:03,42.805,6.029,0.035,-0.013,-0.021,104.0,105.0,102.0,13.4,1505.3,324.5,-0.7,1.8,2470.361,13.33,0.037,110.4
2020-05-19T04:34:03,42.805,6.029,0.012,-0.009,-0.024,105.0,105.0,102.0,13.3,1505.3,324.6,-0.7,1.8,2470.342,13.33,0.015,126.9
2020-05-19T04:37:03,42.805,6.029,0.036,-0.016,-0.033,105.0,104.0,102.0,13.3,1505.3,324.0,-0.7,1.8,2470.402,13.33,0.039,114.0
2020-05-19T04:40:03,42.805,6.029,0.002,-0.023,-0.056,103.0,107.0,102.0,13.4,1505.3,326.7,-0.7,1.8,2470.401,13.33,0.023,175.0
2020-05-19T04:43:03,42.805,6.029,-0.01,-0.021,-0.082,104.0,105.0,102.0,13.4,1505.3,323.2,-0.7,1.8,2470.397,13.32,0.023,205.5
2020-05-19T04:46:03,42.805,6.029,0.011,-0.02,-0.061,103.0,105.0,102.0,13.4,1505.3,327.4,-0.7,1.8,2470.385,13.32,0.022,151.2
2020-05-19T04:49:03,42.805,6.029,0.025,0.0,-0.029,104.0,104.0,101.0,13.3,1505.3,325.8,-0.7,1.8,2470.389,13.32,0.025,90.0
2020-05-19T04:52:03,42.805,6.029,0.029,-0.011,-0.01,104.0,105.0,102.0,13.3,1505.3,323.7,-0.7,1.8,2470.42,13.32,0.031,110.8
2020-05-19T04:55:03,42.805,6.029,0.027,-0.025,-0.005,104.0,105.0,101.0,13.4,1505.3,324.6,-0.7,1.8,2470.382,13.33,0.036,132.8
2020-05-19T04:58:03,42.805,6.029,0.025,-0.012,-0.015,103.0,105.0,101.0,13.3,1505.3,322.9,-0.7,1.9,2470.372,13.32,0.027,115.6
2020-05-19T05:04:03,42.805,6.029,0.023,-0.024,-0.038,105.0,106.0,102.0,13.4,1505.3,323.6,-0.7,1.8,2470.424,13.31,0.033,136.2
2020-05-19T05:07:03,42.805,6.029,0.019,-0.012,-0.029,104.0,104.0,101.0,13.4,1505.3,325.4,-0.7,1.8,2470.375,13.31,0.022,122.3
2020-05-19T05:10:03,42.805,6.029,0.006,-0.009,-0.013,105.0,105.0,102.0,13.4,1505.3,328.3,-0.7,1.8,2470.433,13.32,0.01,146.3
2020-05-19T05:13:03,42.805,6.029,0.032,-0.015,-0.041,105.0,107.0,102.0,13.4,1505.3,326.4,-0.7,1.8,2470.394,13.32,0.035,115.1
2020-05-19T05:16:03,42.805,6.029,0.028,-0.01,-0.027,105.0,106.0,102.0,13.4,1505.3,327.3,-0.7,1.8,2470.385,13.32,0.029,109.6
2020-05-19T05:19:03,42.805,6.029,0.032,-0.019,-0.028,103.0,106.0,103.0,13.3,1505.3,325.9,-0.7,1.8,2470.414,13.32,0.037,120.7
2020-05-19T05:22:03,42.805,6.029,0.031,0.003,-0.014,105.0,106.0,101.0,13.3,1505.3,327.2,-0.7,1.8,2470.383,13.32,0.031,84.5
2020-05-19T05:25:03,42.805,6.029,0.003,-0.017,-0.005,104.0,107.0,102.0,13.4,1505.3,325.2,-0.7,1.8,2470.378,13.32,0.017,170.0
2020-05-19T05:28:03,42.805,6.029,0.031,0.015,0.01,103.0,107.0,102.0,13.4,1505.3,326.5,-0.7,1.8,2470.4,13.32,0.034,64.2
2020-05-19T05:31:03,42.805,6.029,0.045,-0.016,0.002,103.0,107.0,103.0,13.4,1505.3,328.3,-0.6,1.8,2470.359,13.33,0.047,109.6
2020-05-19T05:34:03,42.805,6.029,0.017,-0.004,-0.071,105.0,106.0,103.0,13.3,1505.3,326.0,-0.7,1.8,2470.416,13.33,0.017,103.2
2020-05-19T05:37:03,42.805,6.029,0.023,-0.016,-0.047,105.0,105.0,101.0,13.3,1505.3,327.7,-0.7,1.9,2470.362,13.33,0.028,124.8
2020-05-19T05:40:03,42.805,6.029,0.011,-0.029,-0.035,105.0,106.0,102.0,13.4,1505.3,327.2,-0.7,1.8,2470.354,13.33,0.031,159.2
2020-05-19T05:43:03,42.805,6.029,0.03,-0.021,-0.014,105.0,107.0,102.0,13.3,1505.3,326.7,-0.7,1.8,2470.339,13.33,0.036,125.0
2020-05-19T05:46:03,42.805,6.029,0.008,-0.009,-0.001,105.0,106.0,102.0,13.3,1505.3,323.5,-0.7,1.8,2470.397,13.33,0.012,138.4
2020-05-19T05:49:03,42.805,6.029,0.024,-0.01,-0.006,104.0,105.0,101.0,13.4,1505.3,326.9,-0.7,1.8,2470.362,13.33,0.026,112.6
2020-05-19T05:52:03,42.805,6.029,0.009,0.022,-0.02,103.0,106.0,102.0,13.4,1505.3,327.0,-0.7,1.9,2470.367,13.33,0.023,22.2
2020-05-19T05:55:03,42.805,6.029,0.048,-0.009,-0.013,104.0,106.0,102.0,13.3,1505.3,327.9,-0.7,1.9,2470.365,13.33,0.048,100.6
2020-05-19T05:58:03,42.805,6.029,0.024,-0.008,-0.032,103.0,107.0,102.0,13.4,1505.3,327.2,-0.7,1.8,2470.397,13.33,0.025,108.4
2020-05-19T06:04:03,42.805,6.029,-0.003,-0.005,-0.026,105.0,104.0,101.0,13.4,1505.3,323.5,-0.7,1.8,2470.377,13.31,0.005,211.0
2020-05-19T06:07:03,42.805,6.029,-0.004,-0.021,-0.067,104.0,106.0,102.0,13.3,1505.3,326.6,-0.7,1.8,2470.382,13.31,0.021,190.8
2020-05-19T06:10:03,42.805,6.029,0.053,-0.019,-0.052,103.0,107.0,102.0,13.3,1505.3,325.6,-0.7,1.8,2470.405,13.32,0.056,109.7
2020-05-19T06:13:03,42.805,6.029,-0.014,-0.009,-0.042,103.0,105.0,101.0,13.4,1505.3,325.9,-0.7,1.8,2470.366,13.32,0.016,237.3
2020-05-19T06:16:03,42.805,6.029,0.0,-0.005,-0.022,104.0,107.0,102.0,13.3,1505.3,327.9,-0.7,1.8,2470.39,13.32,0.005,180.0
2020-05-19T06:19:03,42.805,6.029,0.048,-0.017,-0.019,104.0,106.0,102.0,13.4,1505.3,323.2,-0.7,1.8,2470.335,13.32,0.05,109.5
2020-05-19T06:22:03,42.805,6.029,0.056,-0.009,0.013,105.0,107.0,101.0,13.3,1505.3,327.1,-0.7,1.8,2470.398,13.32,0.056,99.1
2020-05-19T06:25:03,42.805,6.029,0.016,-0.018,-0.023,104.0,106.0,101.0,13.3,1505.3,326.4,-0.7,1.8,2470.378,13.33,0.024,138.4
2020-05-19T06:28:03,42.805,6.029,-0.013,-0.035,-0.043,105.0,105.0,101.0,13.3,1505.3,327.6,-0.7,1.8,2470.337,13.33,0.037,200.4
2020-05-19T06:31:03,42.805,6.029,0.041,0.007,0.004,105.0,106.0,101.0,13.3,1505.3,328.1,-0.7,1.8,2470.385,13.32,0.041,80.3
2020-05-19T06:34:03,42.805,6.029,0.02,-0.018,-0.024,104.0,106.0,100.0,13.3,1505.3,324.1,-0.7,1.8,2470.353,13.32,0.026,132.0
2020-05-19T06:37:03,42.805,6.029,0.015,0.0,-0.02,104.0,107.0,103.0,13.4,1505.3,326.0,-0.7,1.8,2470.351,13.33,0.015,90.0
2020-05-19T06:40:03,42.805,6.029,-0.011,0.002,-0.027,105.0,106.0,102.0,13.3,1505.3,327.4,-0.7,1.8,2470.344,13.33,0.011,280.3
2020-05-19T06:43:03,42.805,6.029,0.015,-0.02,-0.018,104.0,107.0,102.0,13.3,1505.3,327.4,-0.7,1.8,2470.382,13.33,0.025,143.1
2020-05-19T06:46:03,42.805,6.029,0.028,-0.017,0.007,103.0,105.0,102.0,13.4,1505.3,326.4,-0.7,1.8,2470.354,13.33,0.032,121.3
2020-05-19T06:49:03,42.805,6.029,-0.007,-0.021,-0.05,104.0,107.0,101.0,13.4,1505.3,324.8,-0.7,1.8,2470.366,13.33,0.022,198.4
2020-05-19T06:52:03,42.805,6.029,-0.004,-0.003,-0.038,105.0,105.0,102.0,13.4,1505.3,326.3,-0.7,1.8,2470.31,13.32,0.005,233.1
2020-05-19T06:55:03,42.805,6.029,-0.032,-0.015,-0.047,105.0,106.0,103.0,13.4,1505.3,326.6,-0.7,1.8,2470.34,13.32,0.035,244.9
2020-05-19T06:58:03,42.805,6.029,-0.009,0.016,-0.015,105.0,107.0,101.0,13.4,1505.3,324.2,-0.7,1.8,2470.345,13.32,0.018,330.6
2020-05-19T07:04:03,42.805,6.029,-0.022,-0.013,-0.053,105.0,106.0,101.0,13.3,1505.3,324.6,-0.7,1.8,2470.382,13.31,0.025,239.4
2020-05-19T07:07:03,42.805,6.029,-0.028,0.007,-0.048,105.0,107.0,101.0,13.4,1505.3,325.4,-0.7,1.8,2470.383,13.31,0.028,284.0
2020-05-19T07:10:03,42.805,6.029,-0.03,-0.021,-0.078,106.0,108.0,102.0,13.4,1505.3,326.7,-0.7,1.8,2470.322,13.32,0.036,235.0
2020-05-19T07:13:03,42.805,6.029,0.006,-0.012,-0.014,104.0,106.0,103.0,13.3,1505.3,326.0,-0.7,1.8,2470.337,13.32,0.013,153.4
2020-05-19T07:16:03,42.805,6.029,-0.06,-0.018,-0.073,104.0,107.0,102.0,13.4,1505.3,326.2,-0.7,1.8,2470.388,13.32,0.062,253.3
2020-05-19T07:19:03,42.805,6.029,0.012,-0.02,-0.048,103.0,107.0,101.0,13.4,1505.3,327.2,-0.7,1.8,2470.38,13.32,0.023,149.0
2020-05-19T07:22:03,42.805,6.029,-0.027,-0.011,-0.062,105.0,108.0,101.0,13.3,1505.3,326.1,-0.7,1.9,2470.399,13.33,0.029,247.8
2020-05-19T07:25:03,42.805,6.029,-0.025,-0.024,-0.075,104.0,107.0,101.0,13.3,1505.3,327.1,-0.7,1.8,2470.361,13.33,0.034,226.2
2020-05-19T07:28:03,42.805,6.029,0.002,-0.009,-0.038,105.0,106.0,101.0,13.4,1505.3,326.7,-0.7,1.8,2470.351,13.33,0.009,167.5
2020-05-19T07:31:03,42.805,6.029,-0.043,-0.013,-0.074,104.0,107.0,101.0,13.4,1505.3,326.0,-0.7,1.9,2470.387,13.33,0.044,253.2
2020-05-19T07:34:03,42.805,6.029,-0.001,-0.007,-0.061,104.0,107.0,101.0,13.3,1505.3,324.0,-0.7,1.8,2470.344,13.33,0.007,188.1
2020-05-19T07:37:03,42.805,6.029,-0.013,-0.005,-0.023,103.0,106.0,101.0,13.4,1505.3,325.6,-0.7,1.8,2470.341,13.33,0.013,249.0
2020-05-19T07:40:03,42.805,6.029,0.028,-0.003,-0.029,104.0,107.0,103.0,13.4,1505.3,324.8,-0.7,1.8,2470.35,13.33,0.028,96.1
2020-05-19T07:43:03,42.805,6.029,0.037,-0.008,0.004,105.0,105.0,102.0,13.4,1505.3,324.9,-0.7,1.8,2470.324,13.33,0.037,102.2
2020-05-19T07:46:03,42.805,6.029,0.009,-0.001,-0.025,105.0,105.0,102.0,13.3,1505.3,325.3,-0.7,1.9,2470.304,13.33,0.009,96.3
2020-05-19T07:49:03,42.805,6.029,-0.042,-0.008,-0.056,103.0,107.0,101.0,13.4,1505.3,326.9,-0.7,1.8,2470.352,13.33,0.042,259.2
2020-05-19T07:52:03,42.805,6.029,-0.021,0.0,-0.025,104.0,106.0,102.0,13.3,1505.3,324.6,-0.7,1.9,2470.347,13.33,0.021,270.0
2020-05-19T07:55:03,42.805,6.029,0.0,-0.007,-0.002,104.0,105.0,101.0,13.4,1505.3,326.3,-0.7,1.8,2470.316,13.33,0.007,180.0
2020-05-19T07:58:03,42.805,6.029,0.004,-0.009,-0.017,105.0,106.0,101.0,13.4,1505.3,323.4,-0.7,1.8,2470.334,13.33,0.009,156.0
2020-05-19T08:04:03,42.805,6.029,-0.026,-0.017,-0.034,105.0,107.0,102.0,13.4,1505.3,328.2,-0.8,1.8,2470.388,13.31,0.031,236.8
2020-05-19T08:07:03,42.805,6.029,0.008,-0.014,-0.028,104.0,106.0,102.0,13.4,1505.3,326.8,-0.7,1.8,2470.354,13.32,0.016,150.3
2020-05-19T08:10:03,42.805,6.029,0.007,-0.017,-0.008,104.0,105.0,102.0,13.3,1505.3,326.3,-0.7,1.9,2470.381,13.32,0.018,157.6
2020-05-19T08:13:03,42.805,6.029,-0.007,0.01,-0.002,105.0,105.0,102.0,13.3,1505.3,323.8,-0.7,1.8,2470.288,13.33,0.012,325.0
2020-05-19T08:16:03,42.805,6.029,0.013,-0.003,0.0,107.0,106.0,101.0,13.4,1505.3,327.5,-0.7,1.9,2470.347,13.33,0.013,103.0
2020-05-19T08:19:03,42.805,6.029,0.017,-0.016,0.0,105.0,106.0,102.0,13.4,1505.3,325.0,-0.7,1.8,2470.305,13.33,0.023,133.3
2020-05-19T08:22:03,42.805,6.029,-0.015,0.003,-0.043,104.0,106.0,101.0,13.4,1505.3,327.2,-0.7,1.8,2470.327,13.33,0.015,281.3
2020-05-19T08:25:03,42.805,6.029,0.0,-0.014,-0.054,105.0,107.0,101.0,13.4,1505.3,326.9,-0.7,1.8,2470.333,13.33,0.014,180.0
2020-05-19T08:28:03,42.805,6.029,-0.033,0.003,-0.017,106.0,108.0,105.0,13.3,1505.3,325.3,-0.7,1.8,2470.335,13.33,0.033,275.2
2020-05-19T08:31:03,42.805,6.029,0.006,-0.01,0.008,105.0,104.0,102.0,13.4,1505.3,324.4,-0.7,1.8,2470.272,13.33,0.011,149.0
2020-05-19T08:34:03,42.805,6.029,0.015,0.015,-0.029,105.0,107.0,102.0,13.4,1505.3,327.3,-0.7,1.8,2470.296,13.33,0.021,45.0
2020-05-19T08:37:03,42.805,6.029,0.0,0.004,-0.011,104.0,105.0,102.0,13.4,1505.3,324.6,-0.7,1.9,2470.249,13.33,0.004,0.0
2020-05-19T08:40:03,42.805,6.029,-0.007,-0.012,-0.018,104.0,106.0,102.0,13.3,1505.3,327.0,-0.7,1.8,2470.319,13.33,0.013,210.3
2020-05-19T08:43:03,42.805,6.029,0.006,-0.023,-0.027,104.0,106.0,102.0,13.3,1505.3,326.2,-0.7,1.8,2470.334,13.33,0.023,165.4
2020-05-19T08:46:03,42.805,6.029,-0.014,0.006,-0.038,105.0,106.0,102.0,13.3,1505.3,325.7,-0.7,1.9,2470.282,13.33,0.015,293.2
2020-05-19T08:49:03,42.805,6.029,-0.032,-0.01,-0.076,104.0,105.0,103.0,13.3,1505.3,325.7,-0.7,1.8,2470.264,13.33,0.033,252.6
2020-05-19T08:52:03,42.805,6.029,-0.028,0.001,-0.011,103.0,106.0,103.0,13.4,1505.3,325.6,-0.7,1.8,2470.29,13.33,0.028,272.0
2020-05-19T08:55:03,42.805,6.029,0.008,0.002,-0.021,103.0,106.0,103.0,13.3,1505.3,325.2,-0.7,1.8,2470.305,13.33,0.008,76.0
2020-05-19T08:58:03,42.805,6.029,-0.017,0.0,-0.047,106.0,106.0,103.0,13.4,1505.3,328.5,-0.7,1.8,2470.268,13.33,0.017,270.0
2020-05-19T09:04:02,42.805,6.029,-0.008,0.001,-0.032,105.0,106.0,102.0,13.4,1505.3,325.5,-0.7,1.8,2470.358,13.31,0.008,277.1
2020-05-19T09:07:03,42.805,6.029,0.015,0.024,-0.005,104.0,106.0,101.0,13.4,1505.3,323.0,-0.7,1.8,2470.321,13.32,0.028,32.0
2020-05-19T09:10:03,42.805,6.029,-0.004,0.015,-0.03,103.0,106.0,102.0,13.4,1505.3,324.2,-0.7,1.8,2470.273,13.33,0.015,345.1
2020-05-19T09:16:03,42.805,6.029,0.011,0.016,-0.02,106.0,107.0,101.0,13.3,1505.3,324.7,-0.7,1.8,2470.296,13.31,0.019,34.5
2020-05-19T09:19:03,42.805,6.029,0.0,-0.003,-0.066,105.0,106.0,102.0,13.4,1505.3,325.4,-0.7,1.8,2470.29,13.32,0.003,180.0
2020-05-19T09:22:03,42.805,6.029,-0.012,0.001,-0.028,104.0,105.0,101.0,13.4,1505.3,325.0,-0.7,1.8,2470.269,13.33,0.012,274.8
2020-05-19T09:25:03,42.805,6.029,-0.019,0.017,-0.016,104.0,107.0,101.0,13.4,1505.3,326.8,-0.7,1.8,2470.319,13.33,0.025,311.8
2020-05-19T09:28:03,42.805,6.029,-0.003,0.006,0.0,104.0,107.0,102.0,13.4,1505.3,324.1,-0.7,1.8,2470.311,13.33,0.006,333.4
2020-05-19T09:31:03,42.805,6.029,-0.018,0.006,0.002,103.0,106.0,102.0,13.4,1505.3,328.4,-0.7,1.8,2470.311,13.33,0.018,288.4
2020-05-19T09:34:03,42.805,6.029,0.0,0.015,-0.004,104.0,106.0,101.0,13.4,1505.3,326.4,-0.7,1.8,2470.261,13.33,0.015,0.0
2020-05-19T09:37:03,42.805,6.029,-0.001,0.002,-0.01,104.0,106.0,101.0,13.4,1505.4,327.5,-0.7,1.8,2470.273,13.34,0.002,333.4
2020-05-19T09:40:03,42.805,6.029,-0.019,0.011,-0.011,104.0,107.0,102.0,13.4,1505.3,324.1,-0.7,1.8,2470.298,13.33,0.021,300.1
2020-05-19T09:43:03,42.805,6.029,-0.002,0.015,-0.011,106.0,106.0,101.0,13.4,1505.3,324.9,-0.7,1.8,2470.267,13.33,0.015,352.4
2020-05-19T09:46:03,42.805,6.029,-0.003,0.018,-0.025,104.0,105.0,102.0,13.4,1505.3,326.3,-0.7,1.9,2470.241,13.33,0.018,350.5
2020-05-19T09:49:03,42.805,6.029,0.001,0.011,-0.014,103.0,106.0,102.0,13.4,1505.3,328.4,-0.7,1.8,2470.272,13.33,0.011,5.2
2020-05-19T09:52:03,42.805,6.029,-0.004,0.027,-0.048,104.0,105.0,102.0,13.4,1505.3,327.0,-0.7,1.8,2470.25,13.33,0.027,351.6
2020-05-19T09:55:03,42.805,6.029,-0.017,0.016,-0.05,105.0,106.0,102.0,13.4,1505.4,326.6,-0.7,1.8,2470.269,13.34,0.023,313.3